"Datum/tijd (MEZT)";"astronomisch [cm]";"waterstand [cm]";"verwachte opzet";"verwachting RWS"
2024-05-14 13:00;62;56;-4;58
2024-05-14 13:10;62;56;-4;58
2024-05-14 13:20;61;55;-4;57
2024-05-14 13:30;61;55;-5;56
2024-05-14 13:40;61;54;-6;55
2024-05-14 13:50;60;53;-6;54
2024-05-14 14:00;60;52;-7;53
2024-05-14 14:10;59;51;-7;52
2024-05-14 14:20;59;50;-9;50
2024-05-14 14:30;58;48;-9;49
2024-05-14 14:40;57;47;-9;48
2024-05-14 14:50;56;46;-10;46
2024-05-14 15:00;55;44;-10;45
2024-05-14 15:10;54;43;-11;43
2024-05-14 15:20;53;42;-11;42
2024-05-14 15:30;52;41;-11;41
2024-05-14 15:40;52;39;-13;39
2024-05-14 15:50;51;38;-14;37
2024-05-14 16:00;50;37;-14;36
2024-05-14 16:10;49;36;-15;34
2024-05-14 16:20;48;35;-15;33
2024-05-14 16:30;47;34;-15;32
2024-05-14 16:40;46;33;-16;30
2024-05-14 16:50;45;32;-16;29
2024-05-14 17:00;45;31;-17;28
2024-05-14 17:10;44;30;-17;27
2024-05-14 17:20;43;29;-17;26
2024-05-14 17:30;43;29;-18;25
2024-05-14 17:40;42;28;-18;24
2024-05-14 17:50;42;27;-18;24
2024-05-14 18:00;41;27;-18;23
2024-05-14 18:10;41;27;-18;23
2024-05-14 18:20;40;26;-16;24
2024-05-14 18:30;40;26;-15;25
2024-05-14 18:40;40;28;-14;26
2024-05-14 18:50;39;27;-14;25
2024-05-14 19:00;39;26;-15;24
2024-05-14 19:10;39;26;-15;24
2024-05-14 19:20;39;25;-15;24
2024-05-14 19:30;39;25;-16;23
2024-05-14 19:40;38;25;-15;23
2024-05-14 19:50;38;24;-15;23
2024-05-14 20:00;38;24;-15;23
2024-05-14 20:10;38;24;-14;24
2024-05-14 20:20;38;24;-14;24
2024-05-14 20:30;39;25;-14;25
2024-05-14 20:40;39;25;-13;26
2024-05-14 20:50;39;27;-12;27
2024-05-14 21:00;40;28;-12;28
2024-05-14 21:10;40;29;-11;29
2024-05-14 21:20;41;30;-11;30
2024-05-14 21:30;42;32;-10;32
2024-05-14 21:40;43;33;-10;33
2024-05-14 21:50;44;35;-9;35
2024-05-14 22:00;45;36;-8;37
2024-05-14 22:10;46;38;-6;40
2024-05-14 22:20;47;40;-5;42
2024-05-14 22:30;48;42;-4;44
2024-05-14 22:40;49;44;-3;46
2024-05-14 22:50;50;45;-3;47
2024-05-14 23:00;51;46;-3;48
2024-05-14 23:10;52;47;-3;49
2024-05-14 23:20;53;48;-2;51
2024-05-14 23:30;54;49;-2;52
2024-05-14 23:40;55;50;-2;53
2024-05-14 23:50;56;51;-2;54
2024-05-15 00:00;56;52;-2;54
2024-05-15 00:10;57;53;-2;55
2024-05-15 00:20;57;53;-2;55
2024-05-15 00:30;58;53;-2;56
2024-05-15 00:40;58;54;-2;56
2024-05-15 00:50;58;54;-2;56
2024-05-15 01:00;58;54;-4;54
2024-05-15 01:10;58;53;-4;54
2024-05-15 01:20;58;53;-5;53
2024-05-15 01:30;58;53;-5;53
2024-05-15 01:40;57;52;-5;52
2024-05-15 01:50;57;51;-6;51
2024-05-15 02:00;56;51;-6;50
2024-05-15 02:10;56;49;-7;49
2024-05-15 02:20;55;49;-7;48
2024-05-15 02:30;54;47;-8;46
2024-05-15 02:40;53;46;-8;45
2024-05-15 02:50;52;45;-9;43
2024-05-15 03:00;51;43;-9;42
2024-05-15 03:10;50;42;-10;40
2024-05-15 03:20;49;40;-10;39
2024-05-15 03:30;48;39;-11;37
2024-05-15 03:40;47;38;-11;36
2024-05-15 03:50;46;37;-12;34
2024-05-15 04:00;45;36;-12;33
2024-05-15 04:10;43;35;-11;32
2024-05-15 04:20;42;34;-12;30
2024-05-15 04:30;41;33;-12;29
2024-05-15 04:40;40;32;-12;28
2024-05-15 04:50;39;31;-12;27
2024-05-15 05:00;38;30;-12;26
2024-05-15 05:10;37;29;-12;25
2024-05-15 05:20;37;28;-13;24
2024-05-15 05:30;36;27;-13;23
2024-05-15 05:40;35;26;-13;22
2024-05-15 05:50;34;26;-13;21
2024-05-15 06:00;34;25;-13;21
2024-05-15 06:10;33;24;-13;20
2024-05-15 06:20;33;24;-13;20
2024-05-15 06:30;32;24;-12;20
2024-05-15 06:40;32;24;-12;20
2024-05-15 06:50;31;25;-10;21
2024-05-15 07:00;31;26;-11;20
2024-05-15 07:10;31;25;-11;20
2024-05-15 07:20;30;25;-11;19
2024-05-15 07:30;30;25;-12;18
2024-05-15 07:40;30;24;-12;18
2024-05-15 07:50;30;24;-13;17
2024-05-15 08:00;29;24;-12;17
2024-05-15 08:10;29;23;-12;17
2024-05-15 08:20;29;23;-12;17
2024-05-15 08:30;29;23;-11;18
2024-05-15 08:40;29;23;-11;18
2024-05-15 08:50;30;24;-11;19
2024-05-15 09:00;30;25;-5;25
2024-05-15 09:10;30;26;-4;26
2024-05-15 09:20;31;27;-4;27
2024-05-15 09:30;32;28;-4;28
2024-05-15 09:40;33;28;-4;29
2024-05-15 09:50;34;29;-3;31
2024-05-15 10:00;35;31;-2;33
2024-05-15 10:10;36;33;0;36
2024-05-15 10:20;37;34;1;38
2024-05-15 10:30;39;37;2;41
2024-05-15 10:40;40;39;4;44
2024-05-15 10:50;42;41;5;47
2024-05-15 11:00;43;43;6;49
2024-05-15 11:10;45;;7;52
2024-05-15 11:20;46;47;8;54
2024-05-15 11:30;48;50;8;56
2024-05-15 11:40;49;51;9;58
2024-05-15 11:50;50;53;9;59
2024-05-15 12:00;51;;9;60
2024-05-15 12:10;53;;8;61
2024-05-15 12:20;54;54;8;62
2024-05-15 12:30;55;56;8;63
2024-05-15 12:40;56;56;7;63
2024-05-15 12:50;56;57;8;64
2024-05-15 13:00;57;58;8;65
2024-05-15 13:10;58;58;7;65
2024-05-15 13:20;58;59;8;66
2024-05-15 13:30;59;60;7;66
2024-05-15 13:40;59;60;7;66
2024-05-15 13:50;59;60;7;66
2024-05-15 14:00;59;60;1;60
2024-05-15 14:10;59;60;1;60
2024-05-15 14:20;59;60;1;60
2024-05-15 14:30;58;60;1;59
2024-05-15 14:40;58;59;1;59
2024-05-15 14:50;58;58;0;58
2024-05-15 15:00;57;58;0;57
2024-05-15 15:10;57;57;0;57
2024-05-15 15:20;56;56;0;56
2024-05-15 15:30;56;55;-1;55
2024-05-15 15:40;55;54;-1;54
2024-05-15 15:50;54;53;-1;53
2024-05-15 16:00;54;52;-2;52
2024-05-15 16:10;53;51;-2;51
2024-05-15 16:20;52;50;-2;50
2024-05-15 16:30;51;49;-3;48
2024-05-15 16:40;50;49;-3;47
2024-05-15 16:50;49;47;-3;46
2024-05-15 17:00;48;46;-4;44
2024-05-15 17:10;47;45;-4;43
2024-05-15 17:20;47;44;-5;42
2024-05-15 17:30;46;43;-6;40
2024-05-15 17:40;45;42;-6;39
2024-05-15 17:50;44;42;-6;38
2024-05-15 18:00;44;40;-7;37
2024-05-15 18:10;43;40;-7;36
2024-05-15 18:20;43;39;-8;35
2024-05-15 18:30;42;38;-8;34
2024-05-15 18:40;41;38;-7;34
2024-05-15 18:50;41;37;-8;33
2024-05-15 19:00;41;37;-4;37
2024-05-15 19:10;40;36;-3;37
2024-05-15 19:20;40;36;-4;36
2024-05-15 19:30;40;36;-3;37
2024-05-15 19:40;39;37;-2;37
2024-05-15 19:50;39;38;-1;38
2024-05-15 20:00;39;38;-2;37
2024-05-15 20:10;39;38;-2;37
2024-05-15 20:20;39;38;-3;36
2024-05-15 20:30;38;38;-2;36
2024-05-15 20:40;38;38;-3;35
2024-05-15 20:50;38;38;-3;35
2024-05-15 21:00;38;38;-3;35
2024-05-15 21:10;38;37;-3;35
2024-05-15 21:20;39;37;-4;35
2024-05-15 21:30;39;37;-4;35
2024-05-15 21:40;39;37;-3;36
2024-05-15 21:50;40;38;-4;36
2024-05-15 22:00;40;38;-3;37
2024-05-15 22:10;41;39;-3;38
2024-05-15 22:20;41;40;-3;38
2024-05-15 22:30;42;40;-3;39
2024-05-15 22:40;43;41;-2;41
2024-05-15 22:50;44;42;-2;42
2024-05-15 23:00;45;43;-1;44
2024-05-15 23:10;46;44;0;46
2024-05-15 23:20;47;45;1;48
2024-05-15 23:30;48;46;1;49
2024-05-15 23:40;49;47;1;50
2024-05-15 23:50;49;48;2;51
2024-05-16 00:00;50;49;2;52
2024-05-16 00:10;51;50;3;54
2024-05-16 00:20;52;51;3;55
2024-05-16 00:30;53;52;3;56
2024-05-16 00:40;53;53;4;57
2024-05-16 00:50;54;54;4;58
2024-05-16 01:00;54;55;4;58
2024-05-16 01:10;55;55;4;59
2024-05-16 01:20;55;56;4;59
2024-05-16 01:30;55;56;5;60
2024-05-16 01:40;56;56;4;60
2024-05-16 01:50;56;56;3;59
2024-05-16 02:00;56;56;0;56
2024-05-16 02:10;56;55;-1;55
2024-05-16 02:20;56;55;-1;55
2024-05-16 02:30;56;55;-1;55
2024-05-16 02:40;55;55;-1;54
2024-05-16 02:50;55;54;-2;53
2024-05-16 03:00;54;53;-2;52
2024-05-16 03:10;54;53;-3;51
2024-05-16 03:20;53;51;-3;50
2024-05-16 03:30;52;50;-4;48
2024-05-16 03:40;52;49;-6;46
2024-05-16 03:50;51;48;-6;45
2024-05-16 04:00;50;47;-7;43
2024-05-16 04:10;49;45;-8;41
2024-05-16 04:20;48;44;-8;40
2024-05-16 04:30;47;43;-9;38
2024-05-16 04:40;46;42;-9;37
2024-05-16 04:50;45;41;-9;36
2024-05-16 05:00;43;40;-8;35
2024-05-16 05:10;42;39;-9;33
2024-05-16 05:20;41;38;-9;32
2024-05-16 05:30;40;37;-9;31
2024-05-16 05:40;39;36;-9;30
2024-05-16 05:50;38;35;-9;29
2024-05-16 06:00;37;34;-9;28
2024-05-16 06:10;36;33;-9;27
2024-05-16 06:20;36;33;-10;26
2024-05-16 06:30;35;32;-10;25
2024-05-16 06:40;34;31;-10;24
2024-05-16 06:50;34;31;-11;23
2024-05-16 07:00;33;30;-11;22
2024-05-16 07:10;32;30;-10;22
2024-05-16 07:20;32;29;-11;21
2024-05-16 07:30;31;29;-10;21
2024-05-16 07:40;31;29;-10;21
2024-05-16 07:50;30;29;-8;22
2024-05-16 08:00;30;29;-8;22
2024-05-16 08:10;30;29;-9;21
2024-05-16 08:20;29;28;-9;20
2024-05-16 08:30;29;28;-9;20
2024-05-16 08:40;29;28;-10;19
2024-05-16 08:50;29;28;-10;19
2024-05-16 09:00;28;28;-10;18
2024-05-16 09:10;28;27;-10;18
2024-05-16 09:20;28;27;-10;18
2024-05-16 09:30;28;27;-10;18
2024-05-16 09:40;29;27;-10;19
2024-05-16 09:50;29;28;-10;19
2024-05-16 10:00;29;;-2;27
2024-05-16 10:10;30;30;-2;28
2024-05-16 10:20;31;31;-3;28
2024-05-16 10:30;31;32;-2;29
2024-05-16 10:40;32;32;-2;30
2024-05-16 10:50;33;33;-1;32
2024-05-16 11:00;34;34;0;34
2024-05-16 11:10;35;36;1;36
2024-05-16 11:20;36;37;2;38
2024-05-16 11:30;38;40;3;41
2024-05-16 11:40;39;42;5;44
2024-05-16 11:50;40;44;6;46
2024-05-16 12:00;42;47;7;49
2024-05-16 12:10;43;49;8;51
2024-05-16 12:20;44;52;9;53
2024-05-16 12:30;45;54;11;56
2024-05-16 12:40;47;56;11;58
2024-05-16 12:50;48;58;11;59
2024-05-16 13:00;49;60;11;60
2024-05-16 13:10;50;61;11;61
2024-05-16 13:20;51;61;11;62
2024-05-16 13:30;52;62;11;63
2024-05-16 13:40;53;63;11;64
2024-05-16 13:50;54;64;11;65
2024-05-16 14:00;55;64;11;66
2024-05-16 14:10;55;65;12;67
2024-05-16 14:20;56;65;12;68
2024-05-16 14:30;56;66;12;68
2024-05-16 14:40;57;67;12;69
2024-05-16 14:50;57;67;12;69
2024-05-16 15:00;57;67;12;69
2024-05-16 15:10;57;67;12;69
2024-05-16 15:20;57;67;12;69
2024-05-16 15:30;57;67;12;69
2024-05-16 15:40;57;66;11;68
2024-05-16 15:50;57;66;11;68
2024-05-16 16:00;56;65;12;68
2024-05-16 16:10;56;65;11;67
2024-05-16 16:20;55;64;12;67
2024-05-16 16:30;55;63;11;66
2024-05-16 16:40;54;63;12;66
2024-05-16 16:50;54;62;11;65
2024-05-16 17:00;53;61;11;64
2024-05-16 17:10;52;61;10;62
2024-05-16 17:20;51;59;10;61
2024-05-16 17:30;51;59;9;60
2024-05-16 17:40;50;58;9;59
2024-05-16 17:50;49;56;8;57
2024-05-16 18:00;48;55;8;56
2024-05-16 18:10;47;55;8;55
2024-05-16 18:20;46;54;7;53
2024-05-16 18:30;46;53;6;52
2024-05-16 18:40;45;52;6;51
2024-05-16 18:50;44;51;6;50
2024-05-16 19:00;44;50;6;50
2024-05-16 19:10;43;49;6;49
2024-05-16 19:20;42;49;6;48
2024-05-16 19:30;42;48;5;47
2024-05-16 19:40;41;47;5;46
2024-05-16 19:50;41;47;5;46
2024-05-16 20:00;40;46;5;45
2024-05-16 20:10;40;45;5;45
2024-05-16 20:20;40;45;4;44
2024-05-16 20:30;39;45;5;44
2024-05-16 20:40;39;45;5;44
2024-05-16 20:50;39;45;5;44
2024-05-16 21:00;39;45;5;44
2024-05-16 21:10;38;45;6;44
2024-05-16 21:20;38;45;6;44
2024-05-16 21:30;38;45;5;43
2024-05-16 21:40;38;45;5;43
2024-05-16 21:50;38;45;4;42
2024-05-16 22:00;38;45;4;42
2024-05-16 22:10;38;45;4;42
2024-05-16 22:20;38;45;4;42
2024-05-16 22:30;38;44;4;42
2024-05-16 22:40;39;45;3;42
2024-05-16 22:50;39;45;4;43
2024-05-16 23:00;39;45;4;43
2024-05-16 23:10;40;46;4;44
2024-05-16 23:20;41;47;3;44
2024-05-16 23:30;41;47;4;45
2024-05-16 23:40;42;48;4;46
2024-05-16 23:50;43;49;4;47
2024-05-17 00:00;43;50;5;48
2024-05-17 00:10;44;51;5;49
2024-05-17 00:20;45;52;5;50
2024-05-17 00:30;46;53;5;51
2024-05-17 00:40;47;55;6;53
2024-05-17 00:50;48;;6;54
2024-05-17 01:00;48;;7;55
2024-05-17 01:10;49;57;8;57
2024-05-17 01:20;50;58;8;58
2024-05-17 01:30;51;59;8;59
2024-05-17 01:40;51;61;9;60
2024-05-17 01:50;52;61;9;61
2024-05-17 02:00;52;62;11;63
2024-05-17 02:10;53;63;11;64
2024-05-17 02:20;53;64;12;65
2024-05-17 02:30;53;64;12;65
2024-05-17 02:40;54;64;11;65
2024-05-17 02:50;54;64;12;66
2024-05-17 03:00;54;64;12;66
2024-05-17 03:10;54;64;12;66
2024-05-17 03:20;54;64;12;66
2024-05-17 03:30;54;63;11;65
2024-05-17 03:40;54;63;11;65
2024-05-17 03:50;54;63;10;64
2024-05-17 04:00;54;62;10;64
2024-05-17 04:10;53;61;10;63
2024-05-17 04:20;53;61;9;62
2024-05-17 04:30;52;59;8;60
2024-05-17 04:40;51;58;8;59
2024-05-17 04:50;50;57;8;58
2024-05-17 05:00;50;56;6;56
2024-05-17 05:10;49;55;6;55
2024-05-17 05:20;48;54;5;53
2024-05-17 05:30;47;53;5;52
2024-05-17 05:40;46;52;4;50
2024-05-17 05:50;45;51;4;49
2024-05-17 06:00;43;50;5;48
2024-05-17 06:10;42;49;4;46
2024-05-17 06:20;41;48;4;45
2024-05-17 06:30;40;47;4;44
2024-05-17 06:40;39;46;4;43
2024-05-17 06:50;38;45;4;42
2024-05-17 07:00;38;44;3;41
2024-05-17 07:10;37;43;3;40
2024-05-17 07:20;36;42;3;39
2024-05-17 07:30;35;42;3;38
2024-05-17 07:40;35;41;2;37
2024-05-17 07:50;34;40;2;36
2024-05-17 08:00;33;39;2;35
2024-05-17 08:10;32;39;2;34
2024-05-17 08:20;32;38;2;34
2024-05-17 08:30;31;37;2;33
2024-05-17 08:40;31;37;2;33
2024-05-17 08:50;30;37;2;32
2024-05-17 09:00;30;36;2;32
2024-05-17 09:10;29;37;3;32
2024-05-17 09:20;29;37;3;32
2024-05-17 09:30;29;37;2;31
2024-05-17 09:40;28;36;3;31
2024-05-17 09:50;28;36;2;30
2024-05-17 10:00;28;35;4;32
2024-05-17 10:10;28;35;4;32
2024-05-17 10:20;28;35;3;31
2024-05-17 10:30;28;34;3;31
2024-05-17 10:40;28;34;3;31
2024-05-17 10:50;28;34;3;31
2024-05-17 11:00;29;34;2;31
2024-05-17 11:10;29;34;3;32
2024-05-17 11:20;30;35;3;33
2024-05-17 11:30;30;36;3;33
2024-05-17 11:40;31;37;3;34
2024-05-17 11:50;32;37;3;35
2024-05-17 12:00;33;38;3;36
2024-05-17 12:10;34;39;3;37
2024-05-17 12:20;35;39;4;39
2024-05-17 12:30;36;40;5;41
2024-05-17 12:40;37;42;6;43
2024-05-17 12:50;38;44;8;46
2024-05-17 13:00;39;46;7;46
2024-05-17 13:10;41;48;8;49
2024-05-17 13:20;42;50;9;51
2024-05-17 13:30;43;52;11;54
2024-05-17 13:40;45;54;11;56
2024-05-17 13:50;46;56;12;58
2024-05-17 14:00;47;58;13;60
2024-05-17 14:10;48;60;14;62
2024-05-17 14:20;49;61;14;63
2024-05-17 14:30;51;63;13;64
2024-05-17 14:40;52;63;13;65
2024-05-17 14:50;53;65;14;67
2024-05-17 15:00;53;65;15;68
2024-05-17 15:10;54;66;15;69
2024-05-17 15:20;55;67;15;70
2024-05-17 15:30;55;68;16;71
2024-05-17 15:40;56;68;15;71
2024-05-17 15:50;56;69;16;72
2024-05-17 16:00;57;69;15;72
2024-05-17 16:10;57;70;15;72
2024-05-17 16:20;57;70;15;72
2024-05-17 16:30;57;70;15;72
2024-05-17 16:40;57;70;15;72
2024-05-17 16:50;57;69;15;72
2024-05-17 17:00;56;69;15;71
2024-05-17 17:10;56;69;15;71
2024-05-17 17:20;56;68;14;70
2024-05-17 17:30;55;68;15;70
2024-05-17 17:40;55;67;14;69
2024-05-17 17:50;54;66;14;68
2024-05-17 18:00;53;65;14;67
2024-05-17 18:10;53;65;13;66
2024-05-17 18:20;52;64;13;65
2024-05-17 18:30;51;64;13;64
2024-05-17 18:40;50;63;13;63
2024-05-17 18:50;49;62;12;61
2024-05-17 19:00;49;61;12;61
2024-05-17 19:10;48;60;12;60
2024-05-17 19:20;47;59;12;59
2024-05-17 19:30;46;59;12;58
2024-05-17 19:40;45;58;12;57
2024-05-17 19:50;45;58;11;56
2024-05-17 20:00;44;57;11;55
2024-05-17 20:10;43;57;11;54
2024-05-17 20:20;42;56;12;54
2024-05-17 20:30;42;55;11;53
2024-05-17 20:40;41;54;11;52
2024-05-17 20:50;41;53;10;51
2024-05-17 21:00;40;52;10;50
2024-05-17 21:10;40;52;9;49
2024-05-17 21:20;40;51;9;49
2024-05-17 21:30;39;50;9;48
2024-05-17 21:40;39;50;9;48
2024-05-17 21:50;39;50;8;47
2024-05-17 22:00;38;50;9;47
2024-05-17 22:10;38;50;8;46
2024-05-17 22:20;38;51;8;46
2024-05-17 22:30;38;52;8;46
2024-05-17 22:40;37;51;9;46
2024-05-17 22:50;37;51;8;45
2024-05-17 23:00;37;50;8;45
2024-05-17 23:10;37;50;7;44
2024-05-17 23:20;37;49;7;44
2024-05-17 23:30;37;49;7;44
2024-05-17 23:40;38;49;6;44
2024-05-17 23:50;38;48;6;44
2024-05-18 00:00;38;48;6;44
2024-05-18 00:10;38;48;7;45
2024-05-18 00:20;39;48;6;45
2024-05-18 00:30;39;49;7;46
2024-05-18 00:40;40;50;7;47
2024-05-18 00:50;40;51;7;47
2024-05-18 01:00;41;51;7;48
2024-05-18 01:10;42;52;7;49
2024-05-18 01:20;43;53;7;50
2024-05-18 01:30;44;54;8;52
2024-05-18 01:40;44;55;9;53
2024-05-18 01:50;45;56;10;55
2024-05-18 02:00;46;57;11;57
2024-05-18 02:10;47;58;11;58
2024-05-18 02:20;48;58;12;60
2024-05-18 02:30;49;59;12;61
2024-05-18 02:40;49;60;14;63
2024-05-18 02:50;50;61;14;64
2024-05-18 03:00;51;62;14;65
2024-05-18 03:10;51;64;15;66
2024-05-18 03:20;52;64;15;67
2024-05-18 03:30;53;65;15;68
2024-05-18 03:40;53;65;16;69
2024-05-18 03:50;54;66;15;69
2024-05-18 04:00;54;66;12;66
2024-05-18 04:10;54;66;13;67
2024-05-18 04:20;55;67;12;67
2024-05-18 04:30;55;66;12;67
2024-05-18 04:40;55;66;12;67
2024-05-18 04:50;54;66;12;66
2024-05-18 05:00;54;65;12;66
2024-05-18 05:10;54;65;12;66
2024-05-18 05:20;53;65;12;65
2024-05-18 05:30;53;63;11;64
2024-05-18 05:40;52;63;11;63
2024-05-18 05:50;51;63;11;62
2024-05-18 06:00;50;61;11;61
2024-05-18 06:10;50;60;9;59
2024-05-18 06:20;49;59;9;58
2024-05-18 06:30;48;58;8;56
2024-05-18 06:40;46;56;9;55
2024-05-18 06:50;45;55;8;53
2024-05-18 07:00;44;54;8;52
2024-05-18 07:10;43;53;7;50
2024-05-18 07:20;42;52;7;49
2024-05-18 07:30;41;51;7;48
2024-05-18 07:40;40;50;7;47
2024-05-18 07:50;39;49;6;45
2024-05-18 08:00;38;48;10;48
2024-05-18 08:10;38;47;9;47
2024-05-18 08:20;37;46;9;46
2024-05-18 08:30;36;45;8;44
2024-05-18 08:40;35;43;8;43
2024-05-18 08:50;34;43;8;42
2024-05-18 09:00;34;42;7;41
2024-05-18 09:10;33;42;7;40
2024-05-18 09:20;32;41;7;39
2024-05-18 09:30;32;40;6;38
2024-05-18 09:40;31;40;6;37
2024-05-18 09:50;30;40;7;37
2024-05-18 10:00;30;39;6;36
2024-05-18 10:10;29;39;7;36
2024-05-18 10:20;29;39;6;35
2024-05-18 10:30;29;40;6;35
2024-05-18 10:40;28;41;8;36
2024-05-18 10:50;28;40;7;35
2024-05-18 11:00;28;40;6;34
2024-05-18 11:10;28;39;6;34
2024-05-18 11:20;28;39;5;33
2024-05-18 11:30;28;39;5;33
2024-05-18 11:40;28;38;4;32
2024-05-18 11:50;28;38;4;32
2024-05-18 12:00;28;38;4;32
2024-05-18 12:10;29;38;4;33
2024-05-18 12:20;29;38;4;33
2024-05-18 12:30;30;38;4;34
2024-05-18 12:40;30;39;5;35
2024-05-18 12:50;31;39;5;36
2024-05-18 13:00;32;41;9;41
2024-05-18 13:10;32;41;10;42
2024-05-18 13:20;33;42;10;43
2024-05-18 13:30;34;43;10;44
2024-05-18 13:40;36;44;10;46
2024-05-18 13:50;37;45;11;48
2024-05-18 14:00;38;47;13;51
2024-05-18 14:10;39;49;14;53
2024-05-18 14:20;41;51;15;56
2024-05-18 14:30;42;53;16;58
2024-05-18 14:40;44;55;17;61
2024-05-18 14:50;45;57;18;63
2024-05-18 15:00;46;59;19;65
2024-05-18 15:10;48;61;19;67
2024-05-18 15:20;49;62;19;68
2024-05-18 15:30;50;63;19;69
2024-05-18 15:40;52;64;18;70
2024-05-18 15:50;53;65;18;71
2024-05-18 16:00;54;66;18;72
2024-05-18 16:10;55;67;18;73
2024-05-18 16:20;56;68;18;74
2024-05-18 16:30;56;68;19;75
2024-05-18 16:40;57;69;19;76
2024-05-18 16:50;57;69;20;77
2024-05-18 17:00;58;70;19;77
2024-05-18 17:10;58;70;19;77
2024-05-18 17:20;58;70;19;77
2024-05-18 17:30;58;70;19;77
2024-05-18 17:40;58;70;19;77
2024-05-18 17:50;58;70;19;77
2024-05-18 18:00;58;70;18;76
2024-05-18 18:10;57;70;19;76
2024-05-18 18:20;57;69;18;75
2024-05-18 18:30;56;69;18;74
2024-05-18 18:40;56;68;18;74
2024-05-18 18:50;55;67;18;73
2024-05-18 19:00;54;66;18;72
2024-05-18 19:10;54;66;16;70
2024-05-18 19:20;53;65;16;69
2024-05-18 19:30;52;64;16;68
2024-05-18 19:40;51;64;15;66
2024-05-18 19:50;50;63;15;65
2024-05-18 20:00;49;64;11;60
2024-05-18 20:10;48;62;11;59
2024-05-18 20:20;47;63;11;58
2024-05-18 20:30;46;63;10;56
2024-05-18 20:40;45;61;10;55
2024-05-18 20:50;45;61;9;54
2024-05-18 21:00;44;59;9;53
2024-05-18 21:10;43;58;9;52
2024-05-18 21:20;42;56;9;51
2024-05-18 21:30;42;55;8;50
2024-05-18 21:40;41;54;9;50
2024-05-18 21:50;41;53;8;49
2024-05-18 22:00;40;52;8;48
2024-05-18 22:10;40;52;7;47
2024-05-18 22:20;39;52;8;47
2024-05-18 22:30;39;52;7;46
2024-05-18 22:40;39;52;7;46
2024-05-18 22:50;38;52;7;45
2024-05-18 23:00;38;52;7;45
2024-05-18 23:10;37;52;7;44
2024-05-18 23:20;37;52;7;44
2024-05-18 23:30;37;52;7;44
2024-05-18 23:40;37;51;7;44
2024-05-18 23:50;36;49;7;43
2024-05-19 00:00;36;48;7;43
2024-05-19 00:10;36;48;6;42
2024-05-19 00:20;36;47;6;42
2024-05-19 00:30;36;47;5;41
2024-05-19 00:40;36;46;5;41
2024-05-19 00:50;36;46;5;41
2024-05-19 01:00;36;47;5;41
2024-05-19 01:10;37;47;4;41
2024-05-19 01:20;37;48;5;42
2024-05-19 01:30;38;48;4;42
2024-05-19 01:40;38;49;5;43
2024-05-19 01:50;39;49;5;44
2024-05-19 02:00;40;50;10;50
2024-05-19 02:10;40;51;11;51
2024-05-19 02:20;41;51;11;52
2024-05-19 02:30;42;52;12;54
2024-05-19 02:40;43;53;13;56
2024-05-19 02:50;44;55;14;58
2024-05-19 03:00;45;56;14;59
2024-05-19 03:10;46;58;15;61
2024-05-19 03:20;47;59;16;63
2024-05-19 03:30;48;60;16;64
2024-05-19 03:40;49;62;17;66
2024-05-19 03:50;50;64;17;67
2024-05-19 04:00;51;66;17;68
2024-05-19 04:10;52;66;18;70
2024-05-19 04:20;53;68;18;71
2024-05-19 04:30;54;68;17;71
2024-05-19 04:40;54;69;18;72
2024-05-19 04:50;55;69;18;73
2024-05-19 05:00;55;69;18;73
2024-05-19 05:10;56;69;17;73
2024-05-19 05:20;56;69;17;73
2024-05-19 05:30;56;69;17;73
2024-05-19 05:40;56;69;17;73
2024-05-19 05:50;56;69;17;73
2024-05-19 06:00;56;68;17;73
2024-05-19 06:10;55;68;17;72
2024-05-19 06:20;55;67;16;71
2024-05-19 06:30;54;67;16;70
2024-05-19 06:40;53;66;16;69
2024-05-19 06:50;53;65;15;68
2024-05-19 07:00;52;64;15;67
2024-05-19 07:10;51;63;14;65
2024-05-19 07:20;50;62;13;63
2024-05-19 07:30;49;61;13;62
2024-05-19 07:40;47;60;13;60
2024-05-19 07:50;46;58;13;59
2024-05-19 08:00;45;57;10;55
2024-05-19 08:10;44;56;10;54
2024-05-19 08:20;43;55;10;53
2024-05-19 08:30;42;54;9;51
2024-05-19 08:40;41;53;9;50
2024-05-19 08:50;40;52;9;49
2024-05-19 09:00;39;51;9;48
2024-05-19 09:10;38;50;9;47
2024-05-19 09:20;37;50;9;46
2024-05-19 09:30;36;49;9;45
2024-05-19 09:40;35;48;9;44
2024-05-19 09:50;35;47;8;43
2024-05-19 10:00;34;46;9;43
2024-05-19 10:10;33;46;9;42
2024-05-19 10:20;32;45;9;41
2024-05-19 10:30;32;44;9;41
2024-05-19 10:40;31;44;9;40
2024-05-19 10:50;31;43;9;40
2024-05-19 11:00;30;43;9;39
2024-05-19 11:10;30;42;9;39
2024-05-19 11:20;29;42;10;39
2024-05-19 11:30;29;43;10;39
2024-05-19 11:40;28;44;11;39
2024-05-19 11:50;28;43;10;38
2024-05-19 12:00;28;43;9;37
2024-05-19 12:10;28;42;9;37
2024-05-19 12:20;28;42;8;36
2024-05-19 12:30;28;42;7;35
2024-05-19 12:40;28;42;7;35
2024-05-19 12:50;28;41;7;35
2024-05-19 13:00;28;41;7;35
2024-05-19 13:10;29;41;6;35
2024-05-19 13:20;29;41;7;36
2024-05-19 13:30;30;42;6;36
2024-05-19 13:40;30;43;7;37
2024-05-19 13:50;31;44;7;38
2024-05-19 14:00;32;44;13;45
2024-05-19 14:10;32;45;14;46
2024-05-19 14:20;33;46;14;47
2024-05-19 14:30;35;47;14;49
2024-05-19 14:40;36;48;15;51
2024-05-19 14:50;37;50;16;53
2024-05-19 15:00;39;52;17;56
2024-05-19 15:10;40;54;19;59
2024-05-19 15:20;42;56;20;62
2024-05-19 15:30;43;59;21;64
2024-05-19 15:40;45;61;22;67
2024-05-19 15:50;46;63;24;70
2024-05-19 16:00;48;65;23;71
2024-05-19 16:10;50;68;22;72
2024-05-19 16:20;51;69;23;74
2024-05-19 16:30;52;70;23;75
2024-05-19 16:40;54;72;22;76
2024-05-19 16:50;55;73;22;77
2024-05-19 17:00;56;74;22;78
2024-05-19 17:10;57;75;22;79
2024-05-19 17:20;58;76;22;80
2024-05-19 17:30;58;77;23;81
2024-05-19 17:40;59;78;22;81
2024-05-19 17:50;59;78;23;82
2024-05-19 18:00;60;79;22;82
2024-05-19 18:10;60;80;22;82
2024-05-19 18:20;60;81;22;82
2024-05-19 18:30;60;82;22;82
2024-05-19 18:40;60;82;22;82
2024-05-19 18:50;59;82;23;82
2024-05-19 19:00;59;81;22;81
2024-05-19 19:10;59;79;22;81
2024-05-19 19:20;58;78;22;80
2024-05-19 19:30;57;77;22;79
2024-05-19 19:40;57;76;21;78
2024-05-19 19:50;56;75;22;78
2024-05-19 20:00;55;74;21;76
2024-05-19 20:10;54;72;21;75
2024-05-19 20:20;53;71;21;74
2024-05-19 20:30;52;70;21;73
2024-05-19 20:40;51;69;21;72
2024-05-19 20:50;50;68;21;71
2024-05-19 21:00;49;67;21;70
2024-05-19 21:10;48;67;20;68
2024-05-19 21:20;47;66;20;67
2024-05-19 21:30;46;65;20;66
2024-05-19 21:40;45;65;19;64
2024-05-19 21:50;44;64;19;63
2024-05-19 22:00;43;63;19;62
2024-05-19 22:10;43;62;18;61
2024-05-19 22:20;42;62;18;60
2024-05-19 22:30;41;61;18;59
2024-05-19 22:40;41;61;17;58
2024-05-19 22:50;40;60;17;57
2024-05-19 23:00;40;60;17;57
2024-05-19 23:10;39;59;17;56
2024-05-19 23:20;39;59;16;55
2024-05-19 23:30;38;58;17;55
2024-05-19 23:40;38;58;17;55
2024-05-19 23:50;38;57;16;54
2024-05-20 00:00;37;57;17;54
2024-05-20 00:10;37;57;17;54
2024-05-20 00:20;37;58;17;54
2024-05-20 00:30;36;58;18;54
2024-05-20 00:40;36;57;17;53
2024-05-20 00:50;36;58;16;52
2024-05-20 01:00;36;57;19;55
2024-05-20 01:10;35;57;20;55
2024-05-20 01:20;35;57;19;54
2024-05-20 01:30;35;57;19;54
2024-05-20 01:40;35;56;18;53
2024-05-20 01:50;35;56;19;54
2024-05-20 02:00;36;56;18;54
2024-05-20 02:10;36;56;18;54
2024-05-20 02:20;36;57;19;55
2024-05-20 02:30;37;58;19;56
2024-05-20 02:40;38;59;18;56